Terminal Aerodrome Forecast
Issued by NWS Chicago, IL

Home | Current Version | Previous Version | Graphics & Text | Print | Product List | Glossary On
Versions: 1 2 3 4 5 6 7 8 9 10 11 12 13 14 15 16 17 18 19 20 21 22 23 24 25 26 27 28 29 30 31
000
FTUS43 KLOT 290900 AAA
TAFRFD
TAF AMD
KRFD 290900Z 2909/3006 25008KT P6SM VCTS SCT020 OVC040CB
      TEMPO 2911/2913 4SM SHRA BKN020
     FM291300 29011G16KT P6SM SCT020 BKN150
     FM291500 29013G20KT P6SM FEW250
     FM300100 26006KT P6SM FEW250=

USA.gov is the U.S. government's official web portal to all federal, state and local government web resources and services.